SL-14 DEB, 45283

Orbit data source: Space-Track

SL-14 DEB, 45283 is space debris in LEO originally from a launch on Thu, 15 Aug 1991 UTC launched from the Plesetsk Missile And Space Complex (PKMTR). Debris objects in space refer to the collection of defunct objects orbiting the Earth. Examples of debris include non-operational satellites, rocket bodies, and fragments generated from explosions, collisions, or faulty payload assembly.

Loading next visibility...
Identifier
45283, 1991-056V
Orbit
LEO
Country
Flag of CISCIS
Related business
Manufacturer
Unknown
Mission
Spacecraft
Bus & Motor
Unknown
Mass
Unknown
Launch date (UTC)
1991-08-15 (34 years ago)
Launch vehicle
Unknown
Launch site
Plesetsk Missile And Space Complex (PKMTR)
Object type
Payload
Rocket body
Debris
Shape & HBR
Unknown shape, 0.1 m
Radar Cross Section
Small (<0.1 m²)

Expand to show TLE details & history
Last TLE update: 10 hours ago

TLE from 10 hours ago
0 SL-14 DEB
1 45283U 91056V   25304.75642427  .00004289  00000-0  16702-1 0  9994
2 45283  82.5221  49.4155 0257380 112.2309 250.6307 12.78544916265198
Epoch: 2025-10-31T18:09Z
TLE epoch observation values (Epoch: 2025-10-31T18:09:15.056Z)
Latitude
-0.00012°
Longitude
96.80646°
Altitude
1,420.536 km
Speed
7.118 km/s
True Right ascension
03h 17m 39s
True Declination
0° 00' 00"
Sunlit
Object was in full shadow at epoch
Visualization orbit readout
Latitude
Unknown
Longitude
Unknown
Altitude
Unknown
Speed
Unknown
Apparent Right ascension
Unknown
Apparent Declination
Unknown
Sunlit
N/A
Visualization observer readout
Local Sidereal Time
23:42:12
Azimuth
Unknown
Elevation
Unknown
Doppler factor
Unknown
Orbital elements
Apogee altitude
1,543.392 km
Perigee altitude
1,145.855 km
Semi-major axis
7,722.76 km
Eccentricity
0.02574
Inclination
82.5221°
RAAN
49.4155°
Arg. of periapsis
112.2309°
True anomaly
247.87872°
Mean anomaly
250.6307°
Eccentric anomaly
249.25166°
Mean motion
3.19804 °/min
Orbital period
112.57 mins
BSTAR
0.016702
Loading maneuver chart data...
Computing Atmospheric mass density...
Loading historical data...
Loading historical data...
Loading historical data...
Loading historical data...
Loading historical data...
Loading historical data...
Loading historical data...

Documentation

Showing up to 5 results
|